Página principal
METAR-TAF:

METAR-TAF

Aeroportos :

Sault Ste. Marie Municipal Airport (Sanderson Field)

Sault Ste. Marie, Michigan, Estados Unidos

latitude: 46-28-46N, longitude: 084-21-26W, altura: 210 m

Observação actual do tempo

O boletim foi feito há 36 minutos, às 21:55 UTC
Vento 9 kt de noroeste com rajadas de 22 kt
Temperatura 6°C
Humidade 65%
Pressão 1023 hPa
Visibilidade: 16.1 km
Nuvens dispersasa uma altura de 3300 ft
Encobertoa uma altura de 4100 ft

METAR: KANJ 232155Z AUTO 32009G22KT 10SM SCT033 OVC041 06/00 A3021 RMK AO2 SLP235 T00560000

Hora: 18:31 (22:31 UTC)


TAF: em falta

Observações e previsões do tempo de mais de 4000 aeroportos (mensagens METAR e TAF).

As estações disponíveis são os pontos amarelos e vermelhos sobre o mapa.

Mova o rato sobre o mapa para ver o nome da estação.

Depois clique no ponto para visualizar as observações e previsões meteorológicas.

Para alterar o mapa : clique nos botões verdes com uma cruz preta para aumentar o zoom; no botão verde com uma pitada de zoom; ou nas setas verdes para mapas adjacentes.


METAR-TAF: